Regional Weather Roundup
Issued by NWS Cleveland, OH

Home | Current Version | Previous Version | Text Only | Print | Product List | Glossary Off
Versions: 1 2 3 4 5 6 7 8 9 10 11 12 13 14 15 16 17 18 19 20 21 22 23 24 25 26 27 28 29 30 31 32 33 34 35 36 37 38 39 40 41 42 43 44 45 46 47 48 49 50

000
ASUS41 KCLE 290610
RWRCLE
OHIO REGIONAL WEATHER ROUNDUP
NATIONAL WEATHER SERVICE CLEVELAND, OH
200 AM EDT FRI APR 29 2016

NOTE: "FAIR" INDICATES FEW OR NO CLOUDS BELOW 12,000 FEET WITH NO
SIGNIFICANT WEATHER AND/OR OBSTRUCTIONS TO VISIBILITY.

OHZ001>008-015>018-024>027-034-035-043-044-290700-
   NORTHWEST OHIO

CITY           SKY/WX    TMP DP  RH WIND       PRES   REMARKS
DEFIANCE       CLOUDY    48  38  68 N3        30.00S
FINDLAY        CLOUDY    47  41  80 N6        29.97R
TOLEDO EXPRESS CLOUDY    47  36  65 NE14      29.99S
TOLEDO EXEC    CLOUDY    46  37  71 NE8       30.00S
LIMA           CLOUDY    44  44 100 N5        29.97F FOG
$$

OHZ009>014-019>023-028>033-038-089-290700-
   NORTHEAST OHIO

CITY           SKY/WX    TMP DP  RH WIND       PRES   REMARKS
CLE-HOPKINS    LGT RAIN  47  44  90 N5        29.99R
CLE-LAKEFRONT  LGT RAIN  47  43  86 NE7       29.96R
CUY CO. ARPT   NOT AVBL
LORAIN-ELYRIA  LGT RAIN  45  42  89 NE7       29.97F
ASHTABULA      CLOUDY    44  42  93 N5        29.98F
AKRON-CANTON   CLOUDY    47  43  86 CALM      29.95R
WOOSTER        CLOUDY    47  45  93 NE3       29.96F FOG
MANSFIELD      CLOUDY    48  47  96 N3        29.95S
YOUNGSTOWN     LGT RAIN  45  43  93 E6        29.94F FOG
$$

OHZ042-051>053-060>062-070>072-077>081-290700-
  SOUTHWEST OHIO

CITY           SKY/WX    TMP DP  RH WIND       PRES   REMARKS
CINC-COVINGTON FOG       57  56  96 NW8       29.97R VSB 1/2
CINC-LUNKEN    MOCLDY    57  57 100 NW3       29.97R FOG
HAMILTON       CLOUDY    56  54  93 NW6       29.99R FOG
DAYTON         CLOUDY    51  50  96 NW7       29.98R FOG
WRIGHT-PAT AFB CLOUDY    52  52 100 W3        29.97R FOG
DAYTON GENERAL CLOUDY    52  49  89 NW9       29.97R FOG
WILMINGTON     CLEAR     51  50  96 N6        29.96R FOG
$$

OHZ036-037-039>041-045>050-054>059-063>069-073>076-082>088-290700-
  CENTRAL AND SOUTHEAST OHIO

CITY           SKY/WX    TMP DP  RH WIND       PRES   REMARKS
COLUMBUS       CLOUDY    52  49  89 N3        29.94S
OSU AIRPORT    CLOUDY    51  49  92 CALM      29.94S FOG
BOLTON FIELD   CLOUDY    50  49  97 NW3       29.96R
RICKENBACK AFB CLOUDY    52  51  96 N3        29.95R FOG
NEWARK         CLOUDY    54  49  83 CALM      29.93F
MARION         CLOUDY    48  46  93 NE8       29.95F FOG
LANCASTER      CLOUDY    54  52  93 CALM      29.94F FOG
ZANESVILLE     CLOUDY    54  50  86 CALM      29.94S
NEW PHILLY     CLOUDY    48  44  86 N5        29.96S
$$




USA.gov is the U.S. government's official web portal to all federal, state and local government web resources and services.